This is the latest recevied weather packets stored in our database for station/object SP1BMW-13. If no packets are shown the sender has not sent any weather packets the latest 1 day(s).
| Time | Temp. | Humidity | Pressure | Rain* | Wind** | Luminosity | Snow |
|---|---|---|---|---|---|---|---|
| 1777962047 | 10.56° C | 97% | 1010.1 hPa | 2.03 mm | 0 m/s | 31 W/m² | - |
| 1777961986 | 10.56° C | 96% | 1010.2 hPa | 2.03 mm | 0 m/s | 30 W/m² | - |
| 1777961926 | 10.56° C | 97% | 1010.2 hPa | 2.03 mm | 0 m/s | 29 W/m² | - |
| 1777961866 | 10.56° C | 96% | 1010.5 hPa | 2.03 mm | 0 m/s | 30 W/m² | - |
| 1777961806 | 10.56° C | 96% | 1010.4 hPa | 1.78 mm | 0 m/s | 31 W/m² | - |
| 1777961746 | 10.56° C | 96% | 1010.2 hPa | 1.78 mm | 0 m/s | 29 W/m² | - |
| 1777961686 | 10.56° C | 96% | 1010.3 hPa | 1.78 mm | 0 m/s | 29 W/m² | - |
| 1777961626 | 10.56° C | 97% | 1010.2 hPa | 1.78 mm | 0 m/s | 29 W/m² | - |
| 1777961566 | 10.56° C | 96% | 1010.2 hPa | 1.52 mm | 0 m/s | 29 W/m² | - |
| 1777961516 | 10.56° C | 97% | 1010.3 hPa | 1.52 mm | 0 m/s | 28 W/m² | - |
| 1777961446 | 10.56° C | 97% | 1010.5 hPa | 1.52 mm | 0 m/s | 27 W/m² | - |
| 1777961386 | 10.56° C | 97% | 1010.3 hPa | 1.27 mm | 0 m/s | 26 W/m² | - |
| 1777961329 | 10.56° C | 97% | 1010.4 hPa | 1.27 mm | 0 m/s | 27 W/m² | - |
| 1777961266 | 10.56° C | 97% | 1010.5 hPa | 1.27 mm | 0 m/s | 28 W/m² | - |
| 1777961206 | 10.56° C | 97% | 1010.3 hPa | 1.02 mm | 0 m/s | 30 W/m² | - |
| 1777961146 | 10.56° C | 97% | 1010.3 hPa | 1.02 mm | 0 m/s | 32 W/m² | - |
| 1777961086 | 10.56° C | 97% | 1010.3 hPa | 1.02 mm | 0 m/s | 35 W/m² | - |
| 1777961027 | 10.56° C | 97% | 1010.4 hPa | 0.76 mm | 0.45 m/s, 42° | 36 W/m² | - |
| 1777960966 | 10.56° C | 97% | 1010.3 hPa | 0.76 mm | 0 m/s | 38 W/m² | - |
| 1777960906 | 10.56° C | 97% | 1010.3 hPa | 0.76 mm | 0 m/s | 38 W/m² | - |
| 1777960846 | 10.56° C | 97% | 1010.6 hPa | 0.76 mm | 0.45 m/s, 332° | 37 W/m² | - |
| 1777960787 | 10.56° C | 97% | 1010.5 hPa | 0.51 mm | 0 m/s | 35 W/m² | - |
| 1777960726 | 10.56° C | 97% | 1010.6 hPa | 0.51 mm | 0 m/s | 32 W/m² | - |
| 1777960667 | 10.56° C | 97% | 1010.6 hPa | 0.51 mm | 0 m/s | 29 W/m² | - |
| 1777960609 | 10.56° C | 97% | 1010.6 hPa | 0.51 mm | 0 m/s | 25 W/m² | - |
* Rain latest hour (hover to see other rain measurements)
** Current wind speed in m/s (hover to see current wind gust speed)